SBI7520 UTAA-HELX

Flight info

Callsign SBI7520
Flight time N/A
Altitude 36000
Route UTAA N0448F360 RIKOP L720 BRD B451 DHN B411 ASH V14 TBK Y333 GEPAG Q510 PASAM N316 HGD R650 ASRAB HELX
Aircraft B738/M-SDGIWZ/S

Departure

Time 2026-04-15 03:47
Airport Ashgabat International Airport (UTAA)

Arrival

Time N/A
Airport Luxor International Airport (HELX)
Time Latitude Longitude Altitude Speed Heading
2026-04-15 03:27 37.96565 58.37283 699 ft 0 kts 218°
2026-04-15 03:43 37.96570 58.37288 699 ft 2 kts 218°
2026-04-15 03:43 37.96590 58.37307 699 ft 4 kts 218°
2026-04-15 03:43 37.96624 58.37341 699 ft 7 kts 217°
2026-04-15 03:44 37.96651 58.37325 699 ft 5 kts 113°
2026-04-15 03:44 37.96660 58.37300 699 ft 0 kts 118°
2026-04-15 03:44 37.96640 58.37347 699 ft 12 kts 118°
2026-04-15 03:44 37.96684 58.37459 699 ft 20 kts 38°
2026-04-15 03:45 37.96838 58.37518 699 ft 29 kts 342°
2026-04-15 03:45 37.97049 58.37421 699 ft 25 kts 331°
2026-04-15 03:45 37.97134 58.37353 699 ft 14 kts 327°
2026-04-15 03:45 37.97242 58.37297 699 ft 20 kts
2026-04-15 03:46 37.97384 58.37191 699 ft 48 kts 299°
2026-04-15 03:46 37.97677 58.36531 699 ft 121 kts 299°
2026-04-15 03:46 37.98191 58.35378 719 ft 175 kts 300°
2026-04-15 03:46 37.98824 58.33948 1036 ft 197 kts 299°
2026-04-15 03:47 37.99595 58.32422 1541 ft 214 kts 316°
2026-04-15 03:47 38.00727 58.31294 2420 ft 211 kts 322°
2026-04-15 03:47 38.01787 58.29908 2795 ft 231 kts 305°
2026-04-15 03:47 38.02670 58.28133 3340 ft 241 kts 300°
2026-04-15 03:48 38.03645 58.26373 3922 ft 250 kts 317°
2026-04-15 03:48 38.05180 58.25435 4541 ft 252 kts 354°
2026-04-15 03:48 38.06894 58.25821 5186 ft 252 kts 29°
2026-04-15 03:48 38.08323 58.27016 5838 ft 252 kts 39°
2026-04-15 03:49 38.09428 58.28738 6319 ft 255 kts 71°
2026-04-15 03:49 38.09547 58.30942 6925 ft 250 kts 108°
2026-04-15 03:49 38.08771 58.32875 7550 ft 247 kts 126°
2026-04-15 03:49 38.07797 58.34687 8034 ft 253 kts 126°
2026-04-15 03:50 38.06798 58.36531 8596 ft 256 kts 127°
2026-04-15 03:50 38.05769 58.38398 9118 ft 259 kts 127°
2026-04-15 03:50 38.04736 58.40260 9632 ft 262 kts 127°
2026-04-15 03:50 38.03681 58.42156 10130 ft 265 kts 127°
2026-04-15 03:51 38.02605 58.44089 10616 ft 268 kts 127°
2026-04-15 03:51 38.01531 58.46017 11081 ft 271 kts 127°
2026-04-15 03:51 38.00437 58.47983 11535 ft 274 kts 127°
2026-04-15 03:51 37.99316 58.49995 11969 ft 282 kts 127°
2026-04-15 03:52 37.98041 58.51937 12380 ft 292 kts 139°
2026-04-15 03:52 37.96329 58.53468 12466 ft 311 kts 156°
2026-04-15 03:52 37.94272 58.54381 12699 ft 324 kts 169°
2026-04-15 03:52 37.91976 58.54603 12756 ft 340 kts 188°
2026-04-15 03:53 37.89687 58.53774 13254 ft 342 kts 205°
2026-04-15 03:53 37.87609 58.52271 13625 ft 350 kts 219°
2026-04-15 03:53 37.85902 58.50092 14309 ft 347 kts 229°
2026-04-15 03:53 37.84290 58.47770 14705 ft 354 kts 228°
2026-04-15 03:54 37.82630 58.45470 15351 ft 353 kts 228°
2026-04-15 03:54 37.80976 58.43185 15770 ft 358 kts 228°
2026-04-15 03:54 37.79287 58.40844 16343 ft 359 kts 228°
2026-04-15 03:55 37.75908 58.36171 17268 ft 364 kts 228°
2026-04-15 03:55 37.74194 58.33804 17728 ft 366 kts 228°
2026-04-15 03:55 37.72472 58.31426 18164 ft 368 kts 228°
2026-04-15 03:55 37.70717 58.29005 18599 ft 370 kts 229°
2026-04-15 03:56 37.69096 58.26502 18994 ft 372 kts 235°
2026-04-15 03:56 37.67756 58.23707 19398 ft 373 kts 244°
2026-04-15 03:56 37.66817 58.20668 19786 ft 375 kts 254°
2026-04-15 03:56 37.66177 58.17434 20203 ft 376 kts 256°
2026-04-15 03:57 37.65571 58.14229 20529 ft 379 kts 256°
2026-04-15 03:57 37.64930 58.10978 20912 ft 380 kts 256°
2026-04-15 03:57 37.64295 58.07737 21256 ft 382 kts 256°
2026-04-15 03:57 37.63663 58.04481 21585 ft 384 kts 256°
2026-04-15 03:58 37.63027 58.01198 21931 ft 385 kts 256°
2026-04-15 03:58 37.62387 57.97902 22239 ft 387 kts 256°
2026-04-15 03:58 37.61753 57.94633 22555 ft 388 kts 256°
2026-04-15 03:58 37.61109 57.91317 22852 ft 390 kts 256°
2026-04-15 03:59 37.60457 57.87962 23146 ft 392 kts 256°
2026-04-15 03:59 37.59810 57.84632 23446 ft 393 kts 256°
2026-04-15 03:59 37.59154 57.81266 23697 ft 395 kts 256°
2026-04-15 03:59 37.58497 57.77899 23977 ft 396 kts 256°
2026-04-15 04:00 37.57836 57.74517 24249 ft 397 kts 256°
2026-04-15 04:00 37.57169 57.71102 24498 ft 399 kts 256°
2026-04-15 04:00 37.56507 57.67725 24732 ft 401 kts 257°
2026-04-15 04:00 37.55832 57.64287 24988 ft 402 kts 257°
2026-04-15 04:01 37.55157 57.60856 25216 ft 403 kts 257°
2026-04-15 04:01 37.54483 57.57431 25442 ft 404 kts 257°
2026-04-15 04:01 37.53807 57.54007 25639 ft 406 kts 257°
2026-04-15 04:01 37.53119 57.50522 25906 ft 406 kts 257°
2026-04-15 04:02 37.52440 57.47087 26106 ft 408 kts 257°
2026-04-15 04:02 37.51750 57.43608 26332 ft 408 kts 257°
2026-04-15 04:02 37.51065 57.40158 26527 ft 409 kts 257°
2026-04-15 04:02 37.50348 57.36676 26716 ft 411 kts 255°
2026-04-15 04:03 37.49448 57.33236 26910 ft 412 kts 250°
2026-04-15 04:03 37.48253 57.29944 27088 ft 415 kts 243°
2026-04-15 04:03 37.46805 57.26786 27287 ft 416 kts 241°
2026-04-15 04:03 37.45336 57.23629 27464 ft 417 kts 242°
2026-04-15 04:04 37.43898 57.20470 27633 ft 418 kts 242°
2026-04-15 04:04 37.42454 57.17310 27787 ft 420 kts 242°
2026-04-15 04:04 37.40963 57.14086 27962 ft 421 kts 241°
2026-04-15 04:04 37.39491 57.10920 28126 ft 422 kts 241°
2026-04-15 04:05 37.38019 57.07757 28300 ft 422 kts 241°
2026-04-15 04:05 37.36530 57.04564 28487 ft 422 kts 241°
2026-04-15 04:05 37.35041 57.01380 28677 ft 422 kts 241°
2026-04-15 04:05 37.33548 56.98188 28816 ft 423 kts 241°
2026-04-15 04:06 37.32057 56.95003 28966 ft 423 kts 242°
2026-04-15 04:06 37.30568 56.91818 29131 ft 423 kts 242°
2026-04-15 04:06 37.29073 56.88643 29317 ft 423 kts 241°
2026-04-15 04:06 37.27582 56.85497 29440 ft 423 kts 241°
2026-04-15 04:07 37.26078 56.82315 29576 ft 423 kts 242°
2026-04-15 04:07 37.24582 56.79128 29677 ft 424 kts 242°
2026-04-15 04:07 37.23072 56.75895 29767 ft 426 kts 242°
2026-04-15 04:07 37.21573 56.72701 29897 ft 426 kts 242°
2026-04-15 04:08 37.20064 56.69513 30054 ft 425 kts 241°
2026-04-15 04:08 37.18549 56.66334 30177 ft 425 kts 241°
2026-04-15 04:08 37.17030 56.63144 30314 ft 425 kts 241°
2026-04-15 04:08 37.15532 56.60005 30549 ft 422 kts 242°
2026-04-15 04:09 37.14035 56.56855 30744 ft 421 kts 242°
2026-04-15 04:09 37.11051 56.50526 30998 ft 420 kts 242°
2026-04-15 04:09 37.09562 56.47374 31146 ft 420 kts 242°
2026-04-15 04:10 37.08066 56.44230 31221 ft 421 kts 242°
2026-04-15 04:10 37.06558 56.41081 31383 ft 419 kts 242°
2026-04-15 04:10 37.05060 56.37962 31581 ft 417 kts 242°
2026-04-15 04:10 37.03581 56.34871 31752 ft 416 kts 241°
2026-04-15 04:11 37.02090 56.31734 31816 ft 417 kts 242°
2026-04-15 04:11 37.00615 56.28628 31955 ft 417 kts 242°
2026-04-15 04:11 36.99144 56.25540 32097 ft 416 kts 242°
2026-04-15 04:12 36.96139 56.19310 32293 ft 417 kts 241°
2026-04-15 04:12 36.94643 56.16221 32545 ft 413 kts 242°
2026-04-15 04:12 36.93160 56.13156 32704 ft 412 kts 241°
2026-04-15 04:13 36.90200 56.07005 32893 ft 412 kts 242°
2026-04-15 04:13 36.88744 56.03962 33018 ft 412 kts 242°
2026-04-15 04:13 36.87265 56.00861 33087 ft 412 kts 242°
2026-04-15 04:13 36.85799 55.97807 33191 ft 412 kts 241°
2026-04-15 04:14 36.84329 55.94762 33336 ft 411 kts 241°
2026-04-15 04:14 36.81363 55.88675 33499 ft 411 kts 241°
2026-04-15 04:15 36.78408 55.82594 33709 ft 410 kts 241°
2026-04-15 04:15 36.75461 55.76469 33870 ft 410 kts 242°
2026-04-15 04:15 36.73984 55.73427 33994 ft 409 kts 241°
2026-04-15 04:16 36.72516 55.70439 34092 ft 408 kts 241°
2026-04-15 04:16 36.69539 55.64380 34266 ft 408 kts 241°
2026-04-15 04:17 36.66616 55.58365 34419 ft 407 kts 242°
2026-04-15 04:17 36.65147 55.55347 34522 ft 406 kts 241°
2026-04-15 04:17 36.63700 55.52369 34588 ft 406 kts 242°
2026-04-15 04:18 36.60780 55.46362 34732 ft 406 kts 241°
2026-04-15 04:18 36.57833 55.40370 34873 ft 405 kts 241°
2026-04-15 04:19 36.54867 55.34375 35024 ft 404 kts 240°
2026-04-15 04:19 36.51944 55.28429 35165 ft 404 kts 241°
2026-04-15 04:20 36.49025 55.22465 35319 ft 404 kts 240°
2026-04-15 04:20 36.46072 55.16532 35485 ft 403 kts 240°
2026-04-15 04:21 36.43140 55.10625 35624 ft 402 kts 240°
2026-04-15 04:21 36.40265 55.04701 35774 ft 401 kts 242°
2026-04-15 04:22 36.37439 54.98737 35914 ft 400 kts 241°
2026-04-15 04:22 36.34601 54.92773 36048 ft 399 kts 241°
2026-04-15 04:23 36.31792 54.86898 36211 ft 398 kts 241°
2026-04-15 04:23 36.28938 54.80996 36208 ft 400 kts 241°
2026-04-15 04:24 36.26053 54.75048 36210 ft 401 kts 241°
2026-04-15 04:24 36.23211 54.69123 36211 ft 401 kts 241°
2026-04-15 04:25 36.20389 54.63288 36218 ft 401 kts 241°
2026-04-15 04:25 36.17501 54.57376 36225 ft 402 kts 241°
2026-04-15 04:26 36.14612 54.51436 36230 ft 401 kts 242°
2026-04-15 04:26 36.11766 54.45521 36235 ft 401 kts 241°
2026-04-15 04:27 36.08871 54.39587 36236 ft 401 kts 241°
2026-04-15 04:27 36.05971 54.33677 36236 ft 402 kts 241°
2026-04-15 04:28 36.03088 54.27726 36235 ft 401 kts 241°
2026-04-15 04:28 36.00229 54.21827 36235 ft 400 kts 240°
2026-04-15 04:29 35.97356 54.15939 36237 ft 401 kts 240°
2026-04-15 04:29 35.94453 54.10014 36236 ft 402 kts 241°
2026-04-15 04:30 35.91562 54.04111 36236 ft 402 kts 240°
2026-04-15 04:30 35.88637 53.98214 36234 ft 401 kts 240°
2026-04-15 04:31 35.85748 53.92355 36236 ft 401 kts 241°
2026-04-15 04:31 35.82861 53.86476 36237 ft 401 kts 240°
2026-04-15 04:32 35.79933 53.80612 36236 ft 401 kts 240°
2026-04-15 04:32 35.77005 53.74732 36236 ft 402 kts 240°
2026-04-15 04:33 35.74091 53.68867 36235 ft 402 kts 240°
2026-04-15 04:33 35.71178 53.63042 36235 ft 401 kts 240°
2026-04-15 04:34 35.68272 53.57176 36236 ft 402 kts 241°
2026-04-15 04:34 35.65375 53.51324 36236 ft 402 kts 241°
2026-04-15 04:35 35.62455 53.45484 36236 ft 401 kts 241°
2026-04-15 04:35 35.59515 53.39643 36237 ft 401 kts 241°
2026-04-15 04:36 35.56601 53.33800 36236 ft 401 kts 240°
2026-04-15 04:36 35.53711 53.27969 36236 ft 401 kts 240°
2026-04-15 04:37 35.50784 53.22149 36236 ft 400 kts 240°
2026-04-15 04:37 35.47853 53.16360 36236 ft 401 kts 240°
2026-04-15 04:38 35.44909 53.10520 36235 ft 401 kts 240°
2026-04-15 04:38 35.42016 53.04710 36237 ft 400 kts 240°
2026-04-15 04:39 35.39105 52.98913 36236 ft 401 kts 240°
2026-04-15 04:39 35.36183 52.93082 36237 ft 400 kts 240°
2026-04-15 04:40 35.33264 52.87299 36236 ft 400 kts 240°
2026-04-15 04:40 35.30328 52.81552 36236 ft 400 kts 240°
2026-04-15 04:41 35.27380 52.75742 36236 ft 399 kts 242°
2026-04-15 04:41 35.25187 52.69576 36238 ft 397 kts 256°
2026-04-15 04:42 35.23977 52.63006 36236 ft 397 kts 258°
2026-04-15 04:42 35.22755 52.56427 36237 ft 395 kts 258°
2026-04-15 04:43 35.21536 52.49896 36235 ft 396 kts 258°
2026-04-15 04:43 35.20387 52.43330 36232 ft 397 kts 258°
2026-04-15 04:44 35.19236 52.36717 36236 ft 397 kts 258°
2026-04-15 04:44 35.18061 52.30146 36236 ft 397 kts 258°
2026-04-15 04:45 35.16886 52.23581 36236 ft 396 kts 257°
2026-04-15 04:45 35.15696 52.16984 36237 ft 397 kts 258°
2026-04-15 04:46 35.14515 52.10371 36233 ft 395 kts 258°
2026-04-15 04:46 35.12750 52.00557 36236 ft 396 kts 258°
2026-04-15 04:47 35.11573 51.94005 36237 ft 398 kts 258°
2026-04-15 04:47 35.10819 51.87348 36237 ft 395 kts 270°
2026-04-15 04:48 35.11136 51.80644 36236 ft 397 kts 272°
2026-04-15 04:48 35.11424 51.73901 36234 ft 397 kts 272°
2026-04-15 04:49 35.11772 51.67124 36235 ft 398 kts 273°
2026-04-15 04:49 35.12194 51.60421 36235 ft 396 kts 273°
2026-04-15 04:50 35.12607 51.53693 36236 ft 397 kts 273°
2026-04-15 04:50 35.12991 51.46981 36235 ft 397 kts 273°
2026-04-15 04:51 35.13375 51.40261 36237 ft 397 kts 273°
2026-04-15 04:51 35.13730 51.33561 36237 ft 397 kts 271°
2026-04-15 04:52 35.14020 51.26817 36235 ft 398 kts 272°
2026-04-15 04:52 35.14389 51.20061 36235 ft 397 kts 271°
2026-04-15 04:53 35.14371 51.13327 36237 ft 396 kts 268°
2026-04-15 04:53 35.14323 51.06589 36236 ft 396 kts 269°
2026-04-15 04:54 35.14375 50.99871 36237 ft 396 kts 270°
2026-04-15 04:54 35.14410 50.93173 36237 ft 397 kts 269°
2026-04-15 04:55 35.14409 50.86398 36233 ft 399 kts 269°
2026-04-15 04:55 35.14363 50.79626 36226 ft 398 kts 268°
2026-04-15 04:56 35.14238 50.72843 36211 ft 397 kts 268°
2026-04-15 04:56 35.14145 50.66121 36202 ft 399 kts 269°
2026-04-15 04:57 35.14074 50.59320 36196 ft 398 kts 268°
2026-04-15 04:57 35.13202 50.52723 36195 ft 399 kts 246°
2026-04-15 04:58 35.11667 50.49892 36200 ft 403 kts 232°
2026-04-15 04:58 35.09734 50.47380 36163 ft 407 kts 230°
2026-04-15 04:58 35.05856 50.42358 36147 ft 408 kts 231°
2026-04-15 04:59 35.02599 50.36818 36142 ft 400 kts 246°
2026-04-15 04:59 35.00518 50.30486 36132 ft 400 kts 256°
2026-04-15 05:00 34.99282 50.23881 36126 ft 401 kts 257°
2026-04-15 05:00 34.97914 50.17282 36129 ft 402 kts 256°
2026-04-15 05:01 34.96556 50.10686 36128 ft 400 kts 256°
2026-04-15 05:01 34.95249 50.04067 36128 ft 401 kts 257°
2026-04-15 05:02 34.93969 49.97477 36128 ft 401 kts 256°
2026-04-15 05:02 34.92648 49.90833 36129 ft 401 kts 256°
2026-04-15 05:03 34.91317 49.84255 36127 ft 401 kts 256°
2026-04-15 05:03 34.89984 49.77612 36128 ft 403 kts 256°
2026-04-15 05:04 34.88652 49.71028 36127 ft 404 kts 256°
2026-04-15 05:04 34.87299 49.64339 36128 ft 405 kts 256°
2026-04-15 05:05 34.85930 49.57738 36129 ft 404 kts 254°
2026-04-15 05:05 34.84258 49.51172 36126 ft 404 kts 252°
2026-04-15 05:06 34.82606 49.44679 36128 ft 403 kts 253°
2026-04-15 05:06 34.80975 49.38108 36129 ft 404 kts 253°
2026-04-15 05:07 34.79288 49.31591 36127 ft 405 kts 252°
2026-04-15 05:07 34.77596 49.25057 36127 ft 403 kts 252°
2026-04-15 05:08 34.75945 49.18554 36129 ft 403 kts 252°
2026-04-15 05:08 34.74280 49.12043 36129 ft 405 kts 252°
2026-04-15 05:09 34.72607 49.05496 36128 ft 405 kts 252°
2026-04-15 05:09 34.70920 48.98943 36127 ft 406 kts 252°
2026-04-15 05:10 34.69252 48.92389 36131 ft 408 kts 253°
2026-04-15 05:10 34.67612 48.85789 36128 ft 408 kts 253°
2026-04-15 05:11 34.65955 48.79209 36127 ft 406 kts 252°
2026-04-15 05:11 34.64286 48.72644 36128 ft 407 kts 253°
2026-04-15 05:12 34.62597 48.66060 36128 ft 410 kts 252°
2026-04-15 05:12 34.60883 48.59485 36128 ft 408 kts 252°
2026-04-15 05:13 34.59144 48.52969 36128 ft 406 kts 252°
2026-04-15 05:13 34.56973 48.46653 36130 ft 408 kts 243°
2026-04-15 05:14 34.54379 48.40519 36125 ft 407 kts 244°
2026-04-15 05:14 34.51868 48.34351 36129 ft 407 kts 244°
2026-04-15 05:15 34.49341 48.28222 36129 ft 408 kts 243°
2026-04-15 05:15 34.46719 48.22118 36129 ft 408 kts 243°
2026-04-15 05:16 34.44149 48.16043 36135 ft 406 kts 243°
2026-04-15 05:16 34.41610 48.09922 36131 ft 408 kts 244°
2026-04-15 05:17 34.39024 48.03807 36129 ft 406 kts 243°
2026-04-15 05:17 34.36424 47.97707 36133 ft 408 kts 243°
2026-04-15 05:18 34.33838 47.91628 36152 ft 408 kts 243°
2026-04-15 05:18 34.31243 47.85526 36173 ft 406 kts 243°
2026-04-15 05:19 34.28696 47.79457 36193 ft 407 kts 243°
2026-04-15 05:19 34.26136 47.73351 36209 ft 407 kts 243°
2026-04-15 05:20 34.23550 47.67259 36208 ft 408 kts 243°
2026-04-15 05:20 34.20952 47.61223 36204 ft 407 kts 243°
2026-04-15 05:21 34.18308 47.55181 36203 ft 408 kts 243°
2026-04-15 05:21 34.15730 47.49123 36209 ft 407 kts 244°
2026-04-15 05:22 34.13139 47.43009 36209 ft 408 kts 243°
2026-04-15 05:22 34.10512 47.36998 36210 ft 406 kts 243°
2026-04-15 05:23 34.07885 47.30991 36211 ft 407 kts 243°
2026-04-15 05:23 34.05276 47.24892 36209 ft 409 kts 243°
2026-04-15 05:24 34.02671 47.18819 36208 ft 407 kts 243°
2026-04-15 05:24 34.00059 47.12786 36210 ft 408 kts 243°
2026-04-15 05:25 33.97273 47.06854 36208 ft 407 kts 236°
2026-04-15 05:25 33.93906 47.01331 36209 ft 409 kts 234°
2026-04-15 05:26 33.90567 46.95774 36209 ft 410 kts 235°
2026-04-15 05:26 33.87253 46.90170 36209 ft 411 kts 235°
2026-04-15 05:27 33.83886 46.84596 36209 ft 411 kts 234°
2026-04-15 05:27 33.80526 46.79031 36209 ft 413 kts 234°
2026-04-15 05:28 33.77163 46.73400 36211 ft 414 kts 234°
2026-04-15 05:28 33.73793 46.67817 36208 ft 412 kts 234°
2026-04-15 05:29 33.70398 46.62262 36209 ft 413 kts 234°
2026-04-15 05:29 33.67020 46.56659 36209 ft 414 kts 234°
2026-04-15 05:30 33.63645 46.51062 36208 ft 412 kts 234°
2026-04-15 05:30 33.60270 46.45465 36211 ft 413 kts 234°
2026-04-15 05:31 33.56847 46.39928 36206 ft 412 kts 232°
2026-04-15 05:31 33.53115 46.34711 36209 ft 413 kts 229°
2026-04-15 05:32 33.49404 46.29439 36208 ft 414 kts 230°
2026-04-15 05:32 33.45707 46.24152 36209 ft 413 kts 230°
2026-04-15 05:33 33.41981 46.18901 36208 ft 413 kts 230°
2026-04-15 05:33 33.38249 46.13635 36209 ft 413 kts 230°
2026-04-15 05:34 33.34518 46.08384 36211 ft 414 kts 230°
2026-04-15 05:34 33.30801 46.03152 36209 ft 415 kts 230°
2026-04-15 05:35 33.27086 45.97895 36208 ft 413 kts 230°
2026-04-15 05:35 33.23371 45.92681 36209 ft 413 kts 230°
2026-04-15 05:36 33.19608 45.87495 36208 ft 411 kts 230°
2026-04-15 05:36 33.15910 45.82280 36210 ft 412 kts 230°
2026-04-15 05:37 33.12188 45.77038 36208 ft 414 kts 230°
2026-04-15 05:37 33.08431 45.71863 36208 ft 412 kts 230°
2026-04-15 05:38 33.04731 45.66682 36210 ft 410 kts 230°
2026-04-15 05:38 33.01064 45.61484 36208 ft 411 kts 230°
2026-04-15 05:39 32.97334 45.56348 36209 ft 410 kts 229°
2026-04-15 05:39 32.93602 45.51208 36208 ft 410 kts 230°
2026-04-15 05:40 32.89912 45.46044 36210 ft 410 kts 230°
2026-04-15 05:40 32.86196 45.40892 36207 ft 410 kts 230°
2026-04-15 05:41 32.82484 45.35739 36209 ft 410 kts 230°
2026-04-15 05:41 32.78968 45.30434 36209 ft 410 kts 232°
2026-04-15 05:42 32.75474 45.25055 36203 ft 410 kts 231°
2026-04-15 05:42 32.71943 45.19735 36196 ft 409 kts 231°
2026-04-15 05:43 32.68434 45.14427 36190 ft 410 kts 231°
2026-04-15 05:43 32.64938 45.09099 36185 ft 409 kts 232°
2026-04-15 05:44 32.61456 45.03793 36182 ft 411 kts 232°
2026-04-15 05:44 32.57930 44.98410 36182 ft 413 kts 232°
2026-04-15 05:45 32.54419 44.93074 36181 ft 412 kts 232°
2026-04-15 05:45 32.50890 44.87709 36182 ft 413 kts 232°
2026-04-15 05:46 32.47325 44.82383 36182 ft 413 kts 232°
2026-04-15 05:46 32.43781 44.77068 36182 ft 412 kts 232°
2026-04-15 05:47 32.40212 44.71680 36182 ft 414 kts 232°
2026-04-15 05:47 32.36905 44.66162 36179 ft 413 kts 241°
2026-04-15 05:48 32.34412 44.60036 36181 ft 413 kts 245°
2026-04-15 05:48 32.31956 44.53927 36182 ft 413 kts 244°
2026-04-15 05:49 32.29500 44.47771 36183 ft 413 kts 245°
2026-04-15 05:49 32.27085 44.41616 36183 ft 413 kts 245°
2026-04-15 05:50 32.24654 44.35455 36182 ft 413 kts 245°
2026-04-15 05:51 32.21005 44.26270 36182 ft 413 kts 244°
2026-04-15 05:51 32.18588 44.20135 36182 ft 413 kts 244°
2026-04-15 05:52 32.16153 44.14011 36183 ft 413 kts 244°
2026-04-15 05:52 32.13701 44.07853 36181 ft 414 kts 244°
2026-04-15 05:53 32.11284 44.01755 36181 ft 412 kts 244°
2026-04-15 05:53 32.08838 43.95631 36183 ft 412 kts 244°
2026-04-15 05:54 32.06395 43.89520 36183 ft 413 kts 244°
2026-04-15 05:54 32.03934 43.83389 36182 ft 413 kts 244°
2026-04-15 05:55 32.01494 43.77262 36181 ft 412 kts 245°
2026-04-15 05:55 31.99066 43.71154 36181 ft 412 kts 244°
2026-04-15 05:56 31.96609 43.65048 36182 ft 413 kts 244°
2026-04-15 05:56 31.94153 43.58961 36182 ft 412 kts 244°
2026-04-15 05:57 31.91707 43.52888 36183 ft 414 kts 244°
2026-04-15 05:57 31.89241 43.46737 36181 ft 413 kts 244°
2026-04-15 05:58 31.86765 43.40649 36182 ft 412 kts 244°
2026-04-15 05:58 31.84305 43.34603 36182 ft 412 kts 244°
2026-04-15 05:59 31.81837 43.28471 36182 ft 413 kts 244°
2026-04-15 05:59 31.79366 43.22372 36182 ft 412 kts 244°
2026-04-15 06:00 31.76883 43.16333 36182 ft 412 kts 244°
2026-04-15 06:00 31.74384 43.10257 36182 ft 412 kts 245°
2026-04-15 06:01 31.71908 43.04203 36181 ft 412 kts 245°
2026-04-15 06:01 31.69436 42.98151 36182 ft 412 kts 245°
2026-04-15 06:02 31.66894 42.92089 36182 ft 413 kts 245°
2026-04-15 06:02 31.64362 42.86053 36184 ft 414 kts 245°
2026-04-15 06:03 31.61813 42.79989 36188 ft 413 kts 245°
2026-04-15 06:03 31.59272 42.73955 36194 ft 413 kts 245°
2026-04-15 06:04 31.56733 42.67936 36201 ft 413 kts 245°
2026-04-15 06:04 31.54181 42.61897 36208 ft 413 kts 245°
2026-04-15 06:05 31.51628 42.55865 36209 ft 413 kts 245°
2026-04-15 06:05 31.49060 42.49808 36209 ft 413 kts 245°
2026-04-15 06:06 31.46500 42.43780 36209 ft 413 kts 245°
2026-04-15 06:06 31.43952 42.37790 36209 ft 413 kts 245°
2026-04-15 06:07 31.41385 42.31765 36209 ft 413 kts 245°
2026-04-15 06:07 31.38819 42.25753 36209 ft 413 kts 245°
2026-04-15 06:08 31.36240 42.19719 36209 ft 413 kts 245°
2026-04-15 06:08 31.33681 42.13742 36209 ft 413 kts 245°
2026-04-15 06:09 31.31111 42.07750 36209 ft 412 kts 245°
2026-04-15 06:09 31.28540 42.01763 36209 ft 412 kts 245°
2026-04-15 06:10 31.25955 41.95757 36209 ft 413 kts 245°
2026-04-15 06:10 31.23369 41.89755 36209 ft 413 kts 245°
2026-04-15 06:11 31.20792 41.83786 36209 ft 413 kts 245°
2026-04-15 06:11 31.18232 41.77799 36209 ft 413 kts 245°
2026-04-15 06:12 31.15667 41.71800 36209 ft 413 kts 245°
2026-04-15 06:12 31.13095 41.65803 36209 ft 412 kts 245°
2026-04-15 06:13 31.10528 41.59825 36209 ft 413 kts 245°
2026-04-15 06:13 31.07953 41.53837 36209 ft 413 kts 245°
2026-04-15 06:14 31.05383 41.47874 36209 ft 413 kts 245°
2026-04-15 06:14 31.02811 41.41912 36209 ft 412 kts 245°
2026-04-15 06:15 31.00236 41.35955 36209 ft 411 kts 245°
2026-04-15 06:15 30.97655 41.29997 36209 ft 410 kts 245°
2026-04-15 06:16 30.95085 41.24071 36209 ft 408 kts 245°
2026-04-15 06:16 30.92529 41.18187 36209 ft 407 kts 245°
2026-04-15 06:17 30.90105 41.12261 36209 ft 403 kts 251°
2026-04-15 06:17 30.88190 41.06141 36209 ft 402 kts 252°
2026-04-15 06:18 30.86216 41.00077 36209 ft 401 kts 252°
2026-04-15 06:18 30.84255 40.94039 36209 ft 397 kts 253°
2026-04-15 06:19 30.82303 40.88044 36209 ft 393 kts 253°
2026-04-15 06:19 30.80373 40.82126 36209 ft 391 kts 255°
2026-04-15 06:20 30.78443 40.76217 36209 ft 390 kts 255°
2026-04-15 06:20 30.76524 40.70353 36209 ft 390 kts 255°
2026-04-15 06:21 30.74588 40.64450 36209 ft 391 kts 255°
2026-04-15 06:21 30.72649 40.58549 36209 ft 391 kts 255°
2026-04-15 06:22 30.70710 40.52657 36209 ft 391 kts 255°